Time,TemperatureF,DewpointF,PressureIn,WindDirection,WindDirectionDegrees,WindSpeedMPH,WindSpeedGustMPH,Humidity,HourlyPrecipIn,Conditions,Clouds,dailyrainin,SoftwareType,DateUTC
2013-02-21 00:01:00,14.0,9.0,29.70,North,1,1.0,3.0,79,0.00,,,0.06,,2013-02-21 07:01:00,
2013-02-21 00:11:00,14.0,9.0,29.70,NNW,334,2.0,3.0,79,0.00,,,0.06,,2013-02-21 07:11:00,
2013-02-21 00:21:00,14.0,9.0,29.70,NNW,334,2.0,3.0,79,0.00,,,0.06,,2013-02-21 07:21:00,
2013-02-21 00:31:00,14.0,8.0,29.70,North,351,2.0,2.0,78,0.00,,,0.06,,2013-02-21 07:31:00,
2013-02-21 00:41:00,15.0,9.0,29.70,North,356,2.0,3.0,75,0.00,,,0.06,,2013-02-21 07:41:00,
2013-02-21 00:52:00,15.0,9.0,29.70,North,356,2.0,3.0,75,0.00,,,0.06,,2013-02-21 07:52:00,
2013-02-21 01:01:00,14.0,8.0,29.69,North,353,3.0,3.0,76,0.00,,,0.06,,2013-02-21 08:01:00,
2013-02-21 01:11:00,14.0,8.0,29.69,NNW,343,3.0,5.0,75,0.00,,,0.06,,2013-02-21 08:11:00,
2013-02-21 01:21:00,14.0,8.0,29.69,NNW,343,3.0,5.0,75,0.00,,,0.06,,2013-02-21 08:21:00,
2013-02-21 01:31:00,14.0,8.0,29.69,NNW,347,1.0,2.0,76,0.00,,,0.06,,2013-02-21 08:31:00,
2013-02-21 01:41:00,14.0,8.0,29.69,NNW,347,1.0,2.0,76,0.00,,,0.06,,2013-02-21 08:41:00,
2013-02-21 01:51:00,14.0,8.0,29.69,NNW,345,2.0,2.0,77,0.00,,,0.06,,2013-02-21 08:51:00,
2013-02-21 02:01:00,15.0,9.0,29.69,NNW,347,1.0,2.0,77,0.00,,,0.06,,2013-02-21 09:01:00,
2013-02-21 02:11:00,15.0,9.0,29.69,NNW,347,1.0,2.0,77,0.00,,,0.06,,2013-02-21 09:11:00,
2013-02-21 02:22:00,14.0,8.0,29.69,NNW,347,0.0,0.0,78,0.00,,,0.06,,2013-02-21 09:22:00,
2013-02-21 02:31:00,13.0,8.0,29.69,NNW,347,1.0,1.0,80,0.00,,,0.06,,2013-02-21 09:31:00,
2013-02-21 02:41:00,13.0,8.0,29.69,NNW,347,1.0,2.0,79,0.00,,,0.06,,2013-02-21 09:41:00,
2013-02-21 02:51:00,13.0,8.0,29.69,NNW,347,1.0,2.0,79,0.00,,,0.06,,2013-02-21 09:51:00,
2013-02-21 03:01:00,13.0,7.0,29.68,North,356,2.0,3.0,78,0.00,,,0.06,,2013-02-21 10:01:00,
2013-02-21 03:11:00,13.0,7.0,29.68,North,356,2.0,3.0,78,0.00,,,0.06,,2013-02-21 10:11:00,
2013-02-21 03:21:00,14.0,8.0,29.69,North,354,3.0,3.0,77,0.00,,,0.06,,2013-02-21 10:21:00,
2013-02-21 03:31:00,13.0,7.0,29.68,North,4,1.0,3.0,78,0.00,,,0.06,,2013-02-21 10:31:00,
2013-02-21 03:41:00,13.0,7.0,29.68,North,4,1.0,3.0,78,0.00,,,0.06,,2013-02-21 10:41:00,
2013-02-21 03:51:00,12.0,7.0,29.68,North,4,1.0,2.0,79,0.00,,,0.06,,2013-02-21 10:51:00,
2013-02-21 04:00:00,13.0,7.0,29.68,North,4,3.0,3.0,78,0.00,,,0.06,,2013-02-21 11:00:00,
2013-02-21 04:10:00,13.0,7.0,29.68,North,4,3.0,3.0,78,0.00,,,0.06,,2013-02-21 11:10:00,
2013-02-21 04:20:00,13.0,7.0,29.68,North,6,3.0,7.0,78,0.00,,,0.06,,2013-02-21 11:20:00,
2013-02-21 04:31:00,13.0,7.0,29.68,NNE,16,1.0,3.0,77,0.00,,,0.06,,2013-02-21 11:31:00,
2013-02-21 04:41:00,13.0,7.0,29.68,NNE,16,1.0,3.0,77,0.00,,,0.06,,2013-02-21 11:41:00,
2013-02-21 04:51:00,13.0,7.0,29.69,NNE,19,3.0,3.0,77,0.00,,,0.06,,2013-02-21 11:51:00,
2013-02-21 05:01:00,13.0,7.0,29.69,North,351,5.0,6.0,75,0.00,,,0.06,,2013-02-21 12:01:00,
2013-02-21 05:11:00,14.0,7.0,29.69,North,9,3.0,5.0,74,0.00,,,0.06,,2013-02-21 12:11:00,
2013-02-21 05:21:00,14.0,7.0,29.69,North,9,3.0,5.0,74,0.00,,,0.06,,2013-02-21 12:21:00,
2013-02-21 05:32:00,14.0,8.0,29.70,North,0,2.0,3.0,75,0.00,,,0.06,,2013-02-21 12:32:00,
2013-02-21 05:42:00,14.0,7.0,29.70,North,10,3.0,5.0,74,0.00,,,0.06,,2013-02-21 12:42:00,
2013-02-21 05:52:00,14.0,7.0,29.70,North,10,3.0,5.0,74,0.00,,,0.06,,2013-02-21 12:52:00,
2013-02-21 06:01:00,15.0,8.0,29.71,NNE,17,1.0,3.0,73,0.00,,,0.06,,2013-02-21 13:01:00,
2013-02-21 06:11:00,15.0,8.0,29.71,NNE,17,1.0,3.0,73,0.00,,,0.06,,2013-02-21 13:11:00,
2013-02-21 06:22:00,15.0,8.0,29.71,NNE,18,2.0,3.0,73,0.00,,,0.06,,2013-02-21 13:22:00,
2013-02-21 06:31:00,17.0,9.0,29.71,NNE,14,1.0,3.0,71,0.00,,,0.06,,2013-02-21 13:31:00,
2013-02-21 06:41:00,17.0,9.0,29.71,NNE,19,0.0,3.0,70,0.00,,,0.06,,2013-02-21 13:41:00,
2013-02-21 06:51:00,17.0,9.0,29.71,NNE,19,0.0,3.0,70,0.00,,,0.06,,2013-02-21 13:51:00,
2013-02-21 07:02:00,16.0,9.0,29.72,NE,35,1.0,5.0,73,0.00,,,0.06,,2013-02-21 14:02:00,
2013-02-21 07:11:00,16.0,9.0,29.72,NE,35,1.0,5.0,73,0.00,,,0.06,,2013-02-21 14:11:00,
2013-02-21 07:21:00,15.0,8.0,29.72,NNE,16,3.0,5.0,73,0.00,,,0.06,,2013-02-21 14:21:00,
2013-02-21 07:31:00,17.0,10.0,29.73,NNE,17,5.0,6.0,73,0.00,,,0.06,,2013-02-21 14:31:00,
2013-02-21 07:41:00,17.0,9.0,29.73,NNE,20,3.0,3.0,71,0.00,,,0.06,,2013-02-21 14:41:00,
2013-02-21 07:52:00,17.0,9.0,29.73,NNE,20,3.0,3.0,71,0.00,,,0.06,,2013-02-21 14:52:00,
2013-02-21 08:01:00,18.0,10.0,29.74,NNE,31,2.0,3.0,71,0.00,,,0.06,,2013-02-21 15:01:00,
2013-02-21 08:11:00,18.0,10.0,29.74,NNE,31,2.0,3.0,71,0.00,,,0.06,,2013-02-21 15:11:00,
2013-02-21 08:21:00,18.0,10.0,29.75,NNE,30,2.0,3.0,70,0.00,,,0.06,,2013-02-21 15:21:00,
2013-02-21 08:31:00,21.0,11.0,29.75,West,281,0.0,1.0,64,0.00,,,0.06,,2013-02-21 15:31:00,
2013-02-21 08:41:00,21.0,11.0,29.75,West,281,0.0,1.0,64,0.00,,,0.06,,2013-02-21 15:41:00,
2013-02-21 08:51:00,22.0,11.0,29.76,NW,305,0.0,0.0,63,0.00,,,0.06,,2013-02-21 15:51:00,
2013-02-21 09:01:00,25.0,15.0,29.76,North,8,1.0,2.0,64,0.00,,,0.06,,2013-02-21 16:01:00,
2013-02-21 09:12:00,26.0,13.0,29.76,WNW,303,2.0,3.0,58,0.00,,,0.06,,2013-02-21 16:12:00,
2013-02-21 09:21:00,26.0,13.0,29.76,WNW,303,2.0,3.0,58,0.00,,,0.06,,2013-02-21 16:21:00,
2013-02-21 09:31:00,28.0,16.0,29.77,SSE,162,2.0,3.0,60,0.00,,,0.06,,2013-02-21 16:31:00,
2013-02-21 09:41:00,29.0,16.0,29.77,SE,140,3.0,3.0,57,0.00,,,0.06,,2013-02-21 16:41:00,
2013-02-21 09:51:00,29.0,16.0,29.77,SE,140,3.0,3.0,57,0.00,,,0.06,,2013-02-21 16:51:00,
2013-02-21 10:01:00,33.0,18.0,29.77,ESE,113,2.0,3.0,53,0.00,,,0.06,,2013-02-21 17:01:00,
2013-02-21 10:11:00,34.0,18.0,29.78,ESE,113,3.0,3.0,51,0.00,,,0.06,,2013-02-21 17:11:00,
2013-02-21 10:21:00,34.0,18.0,29.78,ESE,113,3.0,3.0,51,0.00,,,0.06,,2013-02-21 17:21:00,
2013-02-21 10:32:00,37.0,19.0,29.78,ESE,117,5.0,8.0,47,0.00,,,0.06,,2013-02-21 17:32:00,
2013-02-21 10:41:00,37.0,19.0,29.78,ESE,117,5.0,8.0,47,0.00,,,0.06,,2013-02-21 17:41:00,
2013-02-21 10:52:00,39.0,19.0,29.78,ESE,117,5.0,6.0,44,0.00,,,0.06,,2013-02-21 17:52:00,
2013-02-21 11:01:00,38.0,19.0,29.79,ESE,122,3.0,7.0,45,0.01,,,0.07,,2013-02-21 18:01:00,
2013-02-21 11:21:00,38.0,19.0,29.79,ESE,111,5.0,7.0,45,0.02,,,0.08,,2013-02-21 18:21:00,
2013-02-21 11:31:00,38.0,20.0,29.79,SE,125,5.0,5.0,47,0.05,,,0.11,,2013-02-21 18:31:00,
2013-02-21 11:42:00,38.0,20.0,29.79,SE,125,5.0,5.0,47,0.05,,,0.11,,2013-02-21 18:42:00,
2013-02-21 11:51:00,39.0,19.0,29.79,SE,125,3.0,3.0,45,0.06,,,0.12,,2013-02-21 18:51:00,
2013-02-21 12:01:00,39.0,20.0,29.79,SE,125,2.0,3.0,46,0.07,,,0.14,,2013-02-21 19:01:00,
2013-02-21 12:31:00,42.0,22.0,29.79,SE,125,3.0,5.0,44,0.05,,,0.16,,2013-02-21 19:31:00,
2013-02-21 12:41:00,42.0,22.0,29.79,SE,125,3.0,5.0,44,0.05,,,0.16,,2013-02-21 19:41:00,
2013-02-21 12:51:00,40.0,20.0,29.78,SE,131,6.0,7.0,45,0.04,,,0.15,,2013-02-21 19:51:00,
2013-02-21 13:01:00,41.0,21.0,29.78,SSE,152,3.0,3.0,44,0.03,,,0.15,,2013-02-21 20:01:00,
2013-02-21 13:11:00,43.0,21.0,29.78,SSE,150,3.0,6.0,41,0.03,,,0.16,,2013-02-21 20:11:00,
2013-02-21 13:31:00,39.0,20.0,29.78,ESE,123,2.0,3.0,47,0.02,,,0.16,,2013-02-21 20:31:00,
2013-02-21 13:41:00,39.0,20.0,29.78,ESE,123,2.0,3.0,47,0.02,,,0.16,,2013-02-21 20:41:00,
2013-02-21 13:52:00,38.0,18.0,29.78,SSE,147,3.0,3.0,43,0.02,,,0.15,,2013-02-21 20:52:00,
2013-02-21 14:02:00,36.0,18.0,29.78,NNW,346,5.0,12.0,47,0.03,,,0.17,,2013-02-21 21:02:00,
2013-02-21 14:11:00,32.0,15.0,29.78,NNW,336,6.0,8.0,49,0.02,,,0.17,,2013-02-21 21:11:00,
2013-02-21 14:21:00,32.0,15.0,29.78,NNW,336,6.0,8.0,49,0.02,,,0.17,,2013-02-21 21:21:00,
2013-02-21 14:31:00,31.0,15.0,29.78,NW,311,3.0,5.0,51,0.03,,,0.17,,2013-02-21 21:31:00,
2013-02-21 14:41:00,35.0,18.0,29.78,NW,304,1.0,2.0,49,0.03,,,0.17,,2013-02-21 21:41:00,
2013-02-21 14:51:00,35.0,18.0,29.78,NW,304,1.0,2.0,49,0.03,,,0.17,,2013-02-21 21:51:00,
2013-02-21 15:01:00,30.0,17.0,29.79,NNW,328,1.0,2.0,58,0.01,,,0.16,,2013-02-21 22:01:00,
2013-02-21 15:11:00,30.0,17.0,29.79,NNW,328,1.0,2.0,58,0.01,,,0.16,,2013-02-21 22:11:00,
2013-02-21 15:21:00,29.0,14.0,29.78,NNE,14,2.0,3.0,52,0.02,,,0.16,,2013-02-21 22:21:00,
2013-02-21 15:31:00,30.0,11.0,29.78,West,274,5.0,6.0,44,0.01,,,0.16,,2013-02-21 22:31:00,
2013-02-21 15:41:00,32.0,12.0,29.78,NNE,28,2.0,6.0,42,0.01,,,0.16,,2013-02-21 22:41:00,
2013-02-21 15:51:00,32.0,12.0,29.78,NNE,28,2.0,6.0,42,0.01,,,0.16,,2013-02-21 22:51:00,
2013-02-21 16:01:00,31.0,9.0,29.79,North,9,3.0,6.0,39,0.01,,,0.16,,2013-02-21 23:01:00,
2013-02-21 16:11:00,31.0,9.0,29.79,North,9,3.0,6.0,39,0.01,,,0.16,,2013-02-21 23:11:00,
2013-02-21 16:21:00,29.0,9.0,29.79,North,358,3.0,6.0,42,0.00,,,0.16,,2013-02-21 23:21:00,
2013-02-21 16:31:00,28.0,9.0,29.79,North,357,6.0,8.0,44,0.00,,,0.16,,2013-02-21 23:31:00,
2013-02-21 16:41:00,28.0,9.0,29.79,North,357,6.0,8.0,44,0.00,,,0.16,,2013-02-21 23:41:00,
2013-02-21 16:52:00,28.0,9.0,29.79,North,6,6.0,8.0,44,0.00,,,0.16,,2013-02-21 23:52:00,
2013-02-21 17:01:00,26.0,8.0,29.79,NNW,346,6.0,9.0,46,0.00,,,0.16,,2013-02-22 00:01:00,
2013-02-21 17:11:00,26.0,8.0,29.79,NNW,346,6.0,9.0,46,0.00,,,0.16,,2013-02-22 00:11:00,
2013-02-21 17:21:00,26.0,8.0,29.79,WNW,295,6.0,6.0,45,0.00,,,0.16,,2013-02-22 00:21:00,
2013-02-21 17:31:00,25.0,9.0,29.80,NW,319,5.0,7.0,50,0.00,,,0.16,,2013-02-22 00:31:00,
2013-02-21 17:41:00,25.0,9.0,29.80,NW,319,5.0,7.0,50,0.00,,,0.16,,2013-02-22 00:41:00,
2013-02-21 17:51:00,25.0,9.0,29.80,NW,308,6.0,9.0,51,0.00,,,0.16,,2013-02-22 00:51:00,
2013-02-21 18:01:00,24.0,11.0,29.81,NW,311,6.0,12.0,56,0.00,,,0.16,,2013-02-22 01:01:00,
2013-02-21 18:11:00,24.0,11.0,29.81,NW,311,6.0,12.0,56,0.00,,,0.16,,2013-02-22 01:11:00,
2013-02-21 18:21:00,23.0,10.0,29.81,West,269,3.0,5.0,57,0.00,,,0.16,,2013-02-22 01:21:00,
2013-02-21 18:32:00,22.0,10.0,29.82,West,272,5.0,6.0,59,0.00,,,0.16,,2013-02-22 01:32:00,
2013-02-21 18:41:00,22.0,10.0,29.82,West,272,5.0,6.0,59,0.00,,,0.16,,2013-02-22 01:41:00,
2013-02-21 18:51:00,23.0,11.0,29.83,West,278,6.0,10.0,59,0.00,,,0.16,,2013-02-22 01:51:00,
2013-02-21 19:01:00,22.0,11.0,29.83,WNW,290,3.0,3.0,62,0.00,,,0.16,,2013-02-22 02:01:00,
2013-02-21 19:11:00,22.0,12.0,29.84,West,265,1.0,3.0,64,0.00,,,0.16,,2013-02-22 02:11:00,
2013-02-21 19:21:00,22.0,12.0,29.84,West,265,1.0,3.0,64,0.00,,,0.16,,2013-02-22 02:21:00,
2013-02-21 19:31:00,21.0,11.0,29.85,North,4,1.0,3.0,64,0.00,,,0.16,,2013-02-22 02:31:00,
2013-02-21 19:41:00,21.0,11.0,29.85,NNE,12,0.0,0.0,66,0.00,,,0.16,,2013-02-22 02:41:00,
2013-02-21 19:52:00,21.0,11.0,29.85,NNE,12,0.0,0.0,66,0.00,,,0.16,,2013-02-22 02:52:00,
2013-02-21 20:01:00,21.0,11.0,29.85,North,4,0.0,0.0,65,0.00,,,0.16,,2013-02-22 03:01:00,
2013-02-21 20:11:00,20.0,11.0,29.86,NNW,335,0.0,0.0,67,0.00,,,0.16,,2013-02-22 03:11:00,
2013-02-21 20:21:00,20.0,11.0,29.86,NNW,335,0.0,0.0,67,0.00,,,0.16,,2013-02-22 03:21:00,
2013-02-21 20:31:00,19.0,10.0,29.86,North,349,0.0,3.0,67,0.00,,,0.16,,2013-02-22 03:31:00,
2013-02-21 20:41:00,19.0,10.0,29.86,North,349,0.0,3.0,67,0.00,,,0.16,,2013-02-22 03:41:00,
2013-02-21 20:51:00,18.0,9.0,29.87,North,5,0.0,0.0,67,0.00,,,0.16,,2013-02-22 03:51:00,
2013-02-21 21:01:00,18.0,9.0,29.87,North,0,0.0,0.0,67,0.00,,,0.16,,2013-02-22 04:01:00,
2013-02-21 21:11:00,17.0,7.0,29.87,North,355,3.0,5.0,65,0.00,,,0.16,,2013-02-22 04:11:00,
2013-02-21 21:21:00,17.0,7.0,29.87,North,355,3.0,5.0,65,0.00,,,0.16,,2013-02-22 04:21:00,
2013-02-21 21:31:00,16.0,6.0,29.87,North,353,2.0,5.0,65,0.00,,,0.16,,2013-02-22 04:31:00,
2013-02-21 21:41:00,16.0,7.0,29.88,North,356,3.0,5.0,67,0.00,,,0.16,,2013-02-22 04:41:00,
2013-02-21 21:51:00,16.0,7.0,29.88,North,356,3.0,5.0,67,0.00,,,0.16,,2013-02-22 04:51:00,
2013-02-21 22:01:00,15.0,6.0,29.87,North,355,3.0,5.0,67,0.00,,,0.16,,2013-02-22 05:01:00,
2013-02-21 22:11:00,15.0,6.0,29.87,North,355,3.0,5.0,67,0.00,,,0.16,,2013-02-22 05:11:00,
2013-02-21 22:21:00,15.0,6.0,29.87,NNW,347,5.0,7.0,68,0.00,,,0.16,,2013-02-22 05:21:00,
2013-02-21 22:32:00,15.0,6.0,29.88,North,0,3.0,3.0,66,0.00,,,0.16,,2013-02-22 05:32:00,
2013-02-21 22:41:00,15.0,6.0,29.88,NNW,341,5.0,6.0,66,0.00,,,0.16,,2013-02-22 05:41:00,
2013-02-21 22:52:00,15.0,6.0,29.88,NNW,341,5.0,6.0,66,0.00,,,0.16,,2013-02-22 05:52:00,
2013-02-21 23:01:00,14.0,5.0,29.88,North,353,3.0,5.0,67,0.00,,,0.16,,2013-02-22 06:01:00,
2013-02-21 23:11:00,14.0,5.0,29.88,North,4,5.0,6.0,67,0.00,,,0.16,,2013-02-22 06:11:00,
2013-02-21 23:21:00,14.0,5.0,29.88,North,4,5.0,6.0,67,0.00,,,0.16,,2013-02-22 06:21:00,
2013-02-21 23:31:00,14.0,5.0,29.88,North,353,6.0,7.0,67,0.00,,,0.16,,2013-02-22 06:31:00,
2013-02-21 23:41:00,14.0,5.0,29.88,North,353,6.0,7.0,67,0.00,,,0.16,,2013-02-22 06:41:00,
2013-02-21 23:51:00,14.0,5.0,29.88,North,0,3.0,6.0,67,0.00,,,0.16,,2013-02-22 06:51:00,